This is the latest recevied weather packets stored in our database for station/object KN6ZYR. If no packets are shown the sender has not sent any weather packets the latest 10 day(s).
| Time | Temp. | Humidity | Pressure | Rain* | Wind** | Luminosity | Snow |
|---|---|---|---|---|---|---|---|
| 1778009593 | 15° C | 55% | 1017.6 hPa | 0 mm | - | 947 W/m² | - |
| 1778009290 | 15.56° C | 57% | 1017.7 hPa | 0 mm | - | 903 W/m² | - |
| 1778008988 | 15.56° C | 55% | 1018 hPa | 0 mm | - | 885 W/m² | - |
| 1778008686 | 14.44° C | 54% | 1017.7 hPa | 0 mm | - | 877 W/m² | - |
| 1778008384 | 14.44° C | 57% | 1017.6 hPa | 0 mm | - | 921 W/m² | - |
| 1778008080 | 15° C | 54% | 1017.5 hPa | 0 mm | - | 468 W/m² | - |
| 1778007775 | 15° C | 54% | 1017.6 hPa | 0 mm | - | 887 W/m² | - |
| 1778007472 | 15° C | 53% | 1017.9 hPa | 0 mm | - | 868 W/m² | - |
| 1778007168 | 13.89° C | 56% | 1018 hPa | 0 mm | - | 773 W/m² | - |
| 1778006864 | 14.44° C | 58% | 1017.9 hPa | 0 mm | - | 625 W/m² | - |
| 1778006562 | 13.89° C | 57% | 1017.7 hPa | 0 mm | - | 670 W/m² | - |
| 1778006258 | 13.33° C | 59% | 1017.4 hPa | 0 mm | - | 721 W/m² | - |
| 1778005956 | 13.33° C | 56% | 1017.7 hPa | 0 mm | - | 445 W/m² | - |
| 1778005652 | 13.89° C | 55% | 1017.9 hPa | 0 mm | - | 336 W/m² | - |
| 1778005349 | 13.33° C | 62% | 1017.6 hPa | 0 mm | - | 333 W/m² | - |
| 1778005045 | 13.89° C | 59% | 1017.6 hPa | 0 mm | - | 982 W/m² | - |
| 1778004743 | 13.89° C | 60% | 1017.4 hPa | 0 mm | - | 1019 W/m² | - |
| 1778004440 | 13.33° C | 60% | 1017.5 hPa | 0 mm | - | 445 W/m² | - |
| 1778004136 | 13.89° C | 57% | 1017.5 hPa | 0 mm | - | 342 W/m² | - |
| 1778003832 | 13.89° C | 60% | 1017.3 hPa | 0 mm | - | 1081 W/m² | - |
| 1778003529 | 13.33° C | 57% | 1017.3 hPa | 0 mm | - | 1099 W/m² | - |
| 1778003226 | 13.33° C | 55% | 1017.1 hPa | 0 mm | - | 656 W/m² | - |
| 1778002922 | 12.22° C | 58% | 1017.3 hPa | 0 mm | - | 905 W/m² | - |
| 1778002619 | 12.78° C | 61% | 1017.1 hPa | 0 mm | - | 666 W/m² | - |
| 1778002315 | 12.22° C | 64% | 1017.1 hPa | 0 mm | - | 1227 W/m² | - |
* Rain latest hour (hover to see other rain measurements)
** Current wind speed in m/s (hover to see current wind gust speed)